Location: Belfast
(54.5830°N, 5.9330°W)
Time: 13:49:41
(UTC+01:00)

ISS - Pass Details

Date: 25 May 2018
Orbit: 402 x 407 km, 51.6° (Epoch: 22 May)

Event Time Altitude Azimuth Distance (km) Brightness Sun altitude
Rises 01:01:12 0° 270° (W) 2,322 0.1 -14.4°
Reaches altitude 10° 01:03:20 10° 264° (W) 1,460 -1.0 -14.4°
Maximum altitude 01:06:28 43° 191° (SSW) 578 -3.5 -14.5°
Enters shadow 01:08:14 21° 130° (SE) 954 -2.3 -14.5°
